Sarasota, FL

6:19 AM EST on January 20, 2018 (GMT -0500)
Sarasota-bradenton

Weather History for KSRQ - October, 2012

Change the Weather History Date:

Friday, October 26, 2012

  Actual Average Record
Temperature  
Mean Temperature 81 °F 74 °F  
Max Temperature 88 °F 83 °F 92 °F (1971)
Min Temperature 74 °F 65 °F 45 °F (1937)
Degree Days  
Heating Degree Days 0 0  
Month to date heating degree days 0 0  
Since 1 July heating degree days 0 0  
Cooling Degree Days 16 9  
Month to date cooling degree days 362 313  
Year to date cooling degree days 3626 3102  
Growing Degree Days 30 (Base 50)    
Moisture  
Dew Point 65 °F    
Average Humidity 64    
Maximum Humidity 87    
Minimum Humidity 40    
Precipitation  
Precipitation 0.00 in 0.07 in 1.17 in (1969)
Month to date precipitation 3.32 2.73  
Year to date precipitation 43.69 48.16  
Sea Level Pressure  
Sea Level Pressure 29.69 in    
Wind  
Wind Speed 13 mph (North)    
Max Wind Speed 25 mph    
Max Gust Speed 32 mph    
Visibility 10 miles    
Events      
T = Trace of Precipitation, MM = Missing Value Source: NWS Daily Summary

Daily Weather History Graph

Daily Weather History Graph

Search for Another Location

Airport or City:

Trip Planner

Search our weather history database for the weather conditions in past years. The results will help you decide how hot, cold, wet, or windy it might be!

Date:

Astronomy

Oct. 26, 2012 Rise Set
Actual Time 7:36 AM EDT 6:50 PM EDT
Civil Twilight 7:13 AM EDT 7:14 PM EDT
Nautical Twilight 6:45 AM EDT 7:42 PM EDT
Astronomical Twilight 6:18 AM EDT 8:09 PM EDT
Moon 4:55 PM EDT (10/26) 4:45 AM EDT (10/26)
Length of Visible Light 12h 01m
Length of Day
11h 13m
Waxing Gibbous, 91% of the Moon is Illuminated
Oct 26
Waxing Gibbous
Oct 29
Full
Nov 6
Last Quarter
Nov 13
New
Nov 20
First Quarter

Hourly Weather History & Observations

Time (EDT) Temp. Heat Index Dew Point Humidity Pressure Visibility Wind Dir Wind Speed Gust Speed Precip Events Conditions
12:53 AM 73.9 °F - 69.1 °F 85% 29.78 in 10.0 mi NNE 9.2 mph - N/A   Clear
2:53 AM 73.9 °F - 69.1 °F 85% 29.73 in 10.0 mi NNE 6.9 mph - N/A   Clear
3:53 AM 73.9 °F - 68.0 °F 82% 29.72 in 10.0 mi North 9.2 mph - N/A   Clear
4:53 AM 73.9 °F - 68.0 °F 82% 29.71 in 10.0 mi North 8.1 mph - N/A   Clear
5:53 AM 75.0 °F - 68.0 °F 79% 29.72 in 10.0 mi North 8.1 mph - N/A   Clear
6:53 AM 73.9 °F - 68.0 °F 82% 29.72 in 10.0 mi North 12.7 mph 18.4 mph N/A   Clear
7:53 AM 73.9 °F - 68.0 °F 82% 29.72 in 10.0 mi North 11.5 mph 23.0 mph N/A   Scattered Clouds
8:53 AM 75.9 °F - 66.9 °F 74% 29.74 in 10.0 mi North 11.5 mph - N/A   Clear
9:53 AM 79.0 °F - 68.0 °F 69% 29.75 in 10.0 mi North 12.7 mph 20.7 mph N/A   Clear
10:53 AM 82.0 °F 84.9 °F 68.0 °F 62% 29.74 in 10.0 mi North 17.3 mph 25.3 mph N/A   Clear
11:53 AM 82.9 °F 85.4 °F 66.9 °F 58% 29.73 in 10.0 mi North 16.1 mph 23.0 mph N/A   Mostly Cloudy
12:53 PM 84.0 °F 86.3 °F 66.0 °F 55% 29.70 in 10.0 mi North 16.1 mph 27.6 mph N/A   Partly Cloudy
1:53 PM 86.0 °F 86.8 °F 63.0 °F 46% 29.67 in 10.0 mi North 17.3 mph 28.8 mph N/A   Scattered Clouds
2:53 PM 87.1 °F 87.5 °F 62.1 °F 43% 29.65 in 10.0 mi North 21.9 mph 32.2 mph N/A   Scattered Clouds
3:53 PM 87.1 °F 87.0 °F 61.0 °F 41% 29.63 in 10.0 mi North 17.3 mph 26.5 mph N/A   Partly Cloudy
4:53 PM 86.0 °F 85.4 °F 59.0 °F 40% 29.62 in 10.0 mi North 16.1 mph 26.5 mph N/A   Clear
5:53 PM 84.9 °F 85.0 °F 61.0 °F 44% 29.62 in 10.0 mi North 11.5 mph 19.6 mph N/A   Clear
6:53 PM 82.0 °F 83.0 °F 62.1 °F 51% 29.64 in 10.0 mi North 15.0 mph 21.9 mph N/A   Clear
7:53 PM 80.1 °F 81.7 °F 64.0 °F 58% 29.66 in 10.0 mi North 12.7 mph 23.0 mph N/A   Scattered Clouds
8:53 PM 79.0 °F - 63.0 °F 58% 29.67 in 10.0 mi North 13.8 mph 24.2 mph N/A   Partly Cloudy
9:53 PM 77.0 °F - 62.1 °F 60% 29.68 in 10.0 mi North 11.5 mph 26.5 mph N/A   Clear
10:53 PM 75.9 °F - 63.0 °F 64% 29.68 in 10.0 mi North 13.8 mph 28.8 mph N/A   Partly Cloudy
11:53 PM 75.0 °F - 63.0 °F 66% 29.68 in 10.0 mi North 13.8 mph 23.0 mph N/A   Partly Cloudy